Location: Unspecified
(0.0000°N, 0.0000°E)
Time: 03:14:18
(UTC+00:00)

JUGNU - Visible Passes

Search period start: 20 March 2019 00:00
Search period end: 30 March 2019 00:00
Orbit: 836 x 864 km, 20.0° (Epoch: 18 March)

Date Brightness Start Highest point End Pass type
(mag) Time Alt. Az. Time Alt. Az. Time Alt. Az.
20 Mar ? 18:58:12 10° SSW 19:01:33 15° SSE 19:04:52 10° SE visible
20 Mar ? 20:45:50 10° SW 20:46:45 14° SW 20:46:45 14° SW visible
21 Mar ? 18:42:51 10° SSW 18:46:30 16° SSE 18:50:07 10° SE visible
21 Mar ? 20:30:34 10° SW 20:32:40 20° SSW 20:32:40 20° SSW visible
22 Mar ? 05:41:45 10° NNW 05:43:57 12° N 05:46:08 10° NNE visible
22 Mar ? 18:27:31 10° SSW 18:31:26 18° SSE 18:35:21 10° SE visible
22 Mar ? 20:15:18 10° SW 20:18:38 29° SSW 20:18:38 29° SSW visible
23 Mar ? 05:26:23 10° NNW 05:28:55 13° N 05:31:28 10° NE visible
23 Mar ? 20:00:04 10° SW 20:04:38 40° S 20:04:38 40° S visible
24 Mar ? 05:11:02 10° NNW 05:13:53 14° NNE 05:16:46 10° NE visible
24 Mar ? 19:44:50 10° SW 19:50:38 51° SSE 19:50:40 51° SSE visible
25 Mar ? 04:55:41 10° NNW 04:58:51 15° NNE 05:02:02 10° NE visible
25 Mar ? 19:29:37 10° WSW 19:35:30 57° SSE 19:36:45 47° ESE visible
26 Mar ? 04:40:21 10° NNW 04:43:49 16° NNE 04:47:18 10° NE visible
26 Mar ? 19:14:24 10° WSW 19:20:22 64° SSE 19:22:52 35° E visible
26 Mar ? 21:03:43 10° W 21:04:45 15° W 21:04:45 15° W visible
27 Mar ? 04:26:05 13° NNW 04:28:46 17° NNE 04:32:31 10° NE visible
27 Mar ? 18:59:14 10° WSW 19:05:13 72° SSE 19:09:01 23° ENE visible
27 Mar ? 20:48:42 10° W 20:50:54 22° WNW 20:50:54 22° WNW visible
28 Mar ? 04:12:05 17° N 04:13:42 19° NNE 04:17:43 10° ENE visible
28 Mar ? 18:44:03 10° WSW 18:50:05 81° SSE 18:55:12 14° ENE visible
28 Mar ? 20:33:41 10° W 20:37:05 28° WNW 20:37:05 28° WNW visible
29 Mar ? 03:58:07 20° N 03:58:38 21° NNE 04:02:54 10° ENE visible
29 Mar ? 05:42:15 10° NW 05:47:54 51° NNE 05:53:35 10° E visible
29 Mar ? 18:28:54 10° WSW 18:34:56 90° NNW 18:40:56 10° ENE visible
29 Mar ? 20:18:43 10° W 20:23:15 32° NW 20:23:15 32° NW visible
